Time,TemperatureF,DewpointF,PressureIn,WindDirection,WindDirectionDegrees,WindSpeedMPH,WindSpeedGustMPH,Humidity,HourlyPrecipIn,Conditions,Clouds,dailyrainin,SolarRadiationWatts/m^2,SoftwareType,DateUTC
2013-03-23 00:04:00,39.6,29.0,30.04,SW,236,0.0,0.0,66,0.00,,,0.00,0,weatherlink.com 1.10,2013-03-23 04:04:00,
2013-03-23 00:19:00,39.5,30.0,30.04,SW,236,0.0,0.0,68,0.00,,,0.00,0,weatherlink.com 1.10,2013-03-23 04:19:00,
2013-03-23 00:34:00,39.5,30.0,30.04,SW,236,0.0,0.0,68,0.00,,,0.00,0,weatherlink.com 1.10,2013-03-23 04:34:00,
2013-03-23 00:49:00,39.5,30.0,30.04,SW,236,0.0,0.0,69,0.00,,,0.00,0,weatherlink.com 1.10,2013-03-23 04:49:00,
2013-03-23 01:04:00,39.5,29.0,30.04,SW,236,0.0,0.0,65,0.00,,,0.00,0,weatherlink.com 1.10,2013-03-23 05:04:00,
2013-03-23 01:19:00,39.6,29.0,30.05,SW,236,0.0,0.0,66,0.00,,,0.00,0,weatherlink.com 1.10,2013-03-23 05:19:00,
2013-03-23 01:34:00,39.5,29.0,30.04,SW,236,0.0,0.0,66,0.00,,,0.00,0,weatherlink.com 1.10,2013-03-23 05:34:00,
2013-03-23 01:49:00,39.7,27.0,30.04,SW,236,0.0,0.0,61,0.00,,,0.00,0,weatherlink.com 1.10,2013-03-23 05:49:00,
2013-03-23 02:05:00,40.4,29.0,30.04,SW,236,0.0,0.0,63,0.00,,,0.00,0,weatherlink.com 1.10,2013-03-23 06:05:00,
2013-03-23 02:20:00,40.3,28.0,30.04,SW,236,0.0,1.0,63,0.00,,,0.00,0,weatherlink.com 1.10,2013-03-23 06:20:00,
2013-03-23 02:35:00,41.0,29.0,30.03,SW,236,0.0,0.0,62,0.00,,,0.00,0,weatherlink.com 1.10,2013-03-23 06:35:00,
2013-03-23 02:50:00,41.1,28.0,30.02,SW,236,0.0,0.0,61,0.00,,,0.00,0,weatherlink.com 1.10,2013-03-23 06:50:00,
2013-03-23 03:05:00,41.3,27.0,30.02,SW,236,0.0,1.0,57,0.00,,,0.00,0,weatherlink.com 1.10,2013-03-23 07:05:00,
2013-03-23 03:20:00,41.8,25.0,30.02,SW,236,0.0,2.0,52,0.00,,,0.00,0,weatherlink.com 1.10,2013-03-23 07:20:00,
2013-03-23 03:35:00,42.0,27.0,30.02,SW,236,0.0,0.0,55,0.00,,,0.00,0,weatherlink.com 1.10,2013-03-23 07:35:00,
2013-03-23 03:50:00,41.9,26.0,30.01,SW,236,0.0,0.0,53,0.00,,,0.00,0,weatherlink.com 1.10,2013-03-23 07:50:00,
2013-03-23 04:05:00,41.6,30.0,30.01,SW,236,0.0,0.0,63,0.00,,,0.00,0,weatherlink.com 1.10,2013-03-23 08:05:00,
2013-03-23 04:20:00,41.0,30.0,30.02,SW,236,0.0,0.0,64,0.00,,,0.00,0,weatherlink.com 1.10,2013-03-23 08:20:00,
2013-03-23 04:35:00,40.8,31.0,30.02,SW,236,0.0,0.0,67,0.00,,,0.00,0,weatherlink.com 1.10,2013-03-23 08:35:00,
2013-03-23 04:50:00,40.6,30.0,30.02,SW,236,0.0,0.0,65,0.00,,,0.00,0,weatherlink.com 1.10,2013-03-23 08:50:00,
2013-03-23 05:05:00,40.2,30.0,30.02,SW,236,0.0,0.0,66,0.00,,,0.00,0,weatherlink.com 1.10,2013-03-23 09:05:00,
2013-03-23 05:20:00,40.0,30.0,30.01,SW,236,0.0,0.0,67,0.00,,,0.00,0,weatherlink.com 1.10,2013-03-23 09:20:00,
2013-03-23 05:35:00,39.8,30.0,30.02,SW,236,0.0,0.0,69,0.00,,,0.00,0,weatherlink.com 1.10,2013-03-23 09:35:00,
2013-03-23 05:50:00,39.8,30.0,30.03,SW,236,0.0,0.0,68,0.00,,,0.00,0,weatherlink.com 1.10,2013-03-23 09:50:00,
2013-03-23 06:05:00,39.8,31.0,30.03,SW,236,0.0,0.0,70,0.00,,,0.00,0,weatherlink.com 1.10,2013-03-23 10:05:00,
2013-03-23 06:20:00,39.5,31.0,30.03,SW,236,0.0,0.0,71,0.00,,,0.00,0,weatherlink.com 1.10,2013-03-23 10:20:00,
2013-03-23 06:35:00,38.9,30.0,30.03,SW,236,0.0,0.0,70,0.00,,,0.00,0,weatherlink.com 1.10,2013-03-23 10:35:00,
2013-03-23 06:50:00,38.4,30.0,30.04,SW,236,0.0,0.0,72,0.00,,,0.00,0,weatherlink.com 1.10,2013-03-23 10:50:00,
2013-03-23 07:05:00,38.1,30.0,30.04,SW,236,0.0,0.0,73,0.00,,,0.00,0,weatherlink.com 1.10,2013-03-23 11:05:00,
2013-03-23 07:20:00,37.6,30.0,30.05,SW,236,0.0,0.0,74,0.00,,,0.00,5,weatherlink.com 1.10,2013-03-23 11:20:00,
2013-03-23 07:35:00,37.1,30.0,30.04,SW,236,0.0,0.0,76,0.00,,,0.00,25,weatherlink.com 1.10,2013-03-23 11:35:00,
2013-03-23 07:50:00,36.8,31.0,30.05,SW,236,0.0,0.0,79,0.00,,,0.00,33,weatherlink.com 1.10,2013-03-23 11:50:00,
2013-03-23 08:20:00,37.7,31.0,30.05,SW,236,0.0,0.0,77,0.00,,,0.00,77,weatherlink.com 1.10,2013-03-23 12:20:00,
2013-03-23 08:35:00,39.4,30.0,30.06,SW,236,0.0,0.0,70,0.00,,,0.00,81,weatherlink.com 1.10,2013-03-23 12:35:00,
2013-03-23 08:50:00,41.0,30.0,30.06,SW,236,0.0,0.0,64,0.00,,,0.00,123,weatherlink.com 1.10,2013-03-23 12:50:00,
2013-03-23 09:05:00,42.4,30.0,30.06,SW,236,0.0,0.0,61,0.00,,,0.00,199,weatherlink.com 1.10,2013-03-23 13:05:00,
2013-03-23 09:20:00,44.4,26.0,30.06,ENE,64,0.0,3.0,48,0.00,,,0.00,274,weatherlink.com 1.10,2013-03-23 13:20:00,
2013-03-23 09:35:00,45.8,24.0,30.06,NNW,344,0.0,2.0,42,0.00,,,0.00,234,weatherlink.com 1.10,2013-03-23 13:35:00,
2013-03-23 09:50:00,46.6,24.0,30.06,North,355,2.0,5.0,42,0.00,,,0.00,251,weatherlink.com 1.10,2013-03-23 13:50:00,
2013-03-23 10:06:00,46.6,21.0,30.07,NNE,33,1.0,5.0,37,0.00,,,0.00,74,weatherlink.com 1.10,2013-03-23 14:06:00,
2013-03-23 10:21:00,46.5,23.0,30.06,NE,48,0.0,2.0,39,0.00,,,0.00,65,weatherlink.com 1.10,2013-03-23 14:21:00,
2013-03-23 10:36:00,46.5,24.0,30.06,NE,48,0.0,1.0,41,0.00,,,0.00,88,weatherlink.com 1.10,2013-03-23 14:36:00,
2013-03-23 10:51:00,46.8,25.0,30.07,SE,124,0.0,2.0,42,0.00,,,0.00,88,weatherlink.com 1.10,2013-03-23 14:51:00,
2013-03-23 11:06:00,47.0,23.0,30.07,NE,42,2.0,3.0,39,0.00,,,0.00,105,weatherlink.com 1.10,2013-03-23 15:06:00,
2013-03-23 11:21:00,47.0,22.0,30.07,NNE,19,1.0,3.0,37,0.00,,,0.00,134,weatherlink.com 1.10,2013-03-23 15:21:00,
2013-03-23 11:36:00,47.0,20.0,30.07,NNE,15,4.0,4.0,35,0.00,,,0.00,132,weatherlink.com 1.10,2013-03-23 15:36:00,
2013-03-23 11:51:00,46.9,21.0,30.07,NE,47,3.0,3.0,36,0.00,,,0.00,100,weatherlink.com 1.10,2013-03-23 15:51:00,
2013-03-23 12:06:00,47.2,23.0,30.07,NNE,21,0.0,2.0,39,0.00,,,0.00,142,weatherlink.com 1.10,2013-03-23 16:06:00,
2013-03-23 12:21:00,47.3,24.0,30.07,WNW,292,3.0,4.0,40,0.00,,,0.00,98,weatherlink.com 1.10,2013-03-23 16:21:00,
2013-03-23 12:36:00,47.2,24.0,30.05,NE,50,0.0,4.0,40,0.00,,,0.00,151,weatherlink.com 1.10,2013-03-23 16:36:00,
2013-03-23 13:21:00,47.8,22.0,30.04,ESE,107,2.0,7.0,36,0.00,,,0.00,267,weatherlink.com 1.10,2013-03-23 17:21:00,
2013-03-23 13:36:00,48.1,22.0,30.04,ESE,117,0.0,2.0,36,0.00,,,0.00,269,weatherlink.com 1.10,2013-03-23 17:36:00,
2013-03-23 13:51:00,48.9,21.0,30.04,NNE,29,0.0,2.0,34,0.00,,,0.00,301,weatherlink.com 1.10,2013-03-23 17:51:00,
2013-03-23 14:21:00,49.4,23.0,30.02,ESE,113,2.0,3.0,35,0.00,,,0.00,232,weatherlink.com 1.10,2013-03-23 18:21:00,
2013-03-23 14:51:00,49.6,25.0,30.00,ENE,74,0.0,3.0,38,0.00,,,0.00,239,weatherlink.com 1.10,2013-03-23 18:51:00,
2013-03-23 15:36:00,50.9,23.0,29.99,WNW,300,0.0,4.0,34,0.00,,,0.00,234,weatherlink.com 1.10,2013-03-23 19:36:00,
2013-03-23 15:51:00,51.2,24.0,29.98,WSW,257,0.0,2.0,35,0.00,,,0.00,262,weatherlink.com 1.10,2013-03-23 19:51:00,
2013-03-23 16:06:00,51.8,25.0,29.98,NE,54,4.0,4.0,35,0.00,,,0.00,283,weatherlink.com 1.10,2013-03-23 20:06:00,
2013-03-23 16:21:00,51.5,25.0,29.97,NW,304,1.0,4.0,35,0.00,,,0.00,255,weatherlink.com 1.10,2013-03-23 20:21:00,
2013-03-23 16:36:00,52.1,26.0,29.97,West,273,0.0,4.0,36,0.00,,,0.00,348,weatherlink.com 1.10,2013-03-23 20:36:00,
2013-03-23 16:51:00,53.2,25.0,29.96,WSW,243,0.0,4.0,34,0.00,,,0.00,485,weatherlink.com 1.10,2013-03-23 20:51:00,
2013-03-23 17:06:00,53.1,26.0,29.97,WSW,244,1.0,6.0,35,0.00,,,0.00,257,weatherlink.com 1.10,2013-03-23 21:06:00,
2013-03-23 17:21:00,53.8,27.0,29.95,ENE,63,0.0,3.0,36,0.00,,,0.00,403,weatherlink.com 1.10,2013-03-23 21:21:00,
2013-03-23 17:36:00,54.3,27.0,29.95,North,5,0.0,4.0,35,0.00,,,0.00,332,weatherlink.com 1.10,2013-03-23 21:36:00,
2013-03-23 17:51:00,54.7,27.0,29.94,WSW,252,5.0,6.0,35,0.00,,,0.00,278,weatherlink.com 1.10,2013-03-23 21:51:00,
2013-03-23 18:06:00,54.8,28.0,29.94,NE,51,0.0,5.0,36,0.00,,,0.00,223,weatherlink.com 1.10,2013-03-23 22:06:00,
2013-03-23 18:21:00,55.4,29.0,29.93,West,261,1.0,4.0,36,0.00,,,0.00,169,weatherlink.com 1.10,2013-03-23 22:21:00,
2013-03-23 18:37:00,55.5,28.0,29.93,West,265,0.0,1.0,35,0.00,,,0.00,109,weatherlink.com 1.10,2013-03-23 22:37:00,
2013-03-23 18:52:00,55.2,28.0,29.93,NNW,335,0.0,1.0,36,0.00,,,0.00,53,weatherlink.com 1.10,2013-03-23 22:52:00,
2013-03-23 19:07:00,54.2,30.0,29.93,NNW,335,0.0,0.0,39,0.00,,,0.00,21,weatherlink.com 1.10,2013-03-23 23:07:00,
2013-03-23 19:22:00,52.0,31.0,29.93,NNW,335,1.0,2.0,44,0.00,,,0.00,9,weatherlink.com 1.10,2013-03-23 23:22:00,
2013-03-23 19:37:00,50.0,31.0,29.94,NNW,335,0.0,0.0,49,0.00,,,0.00,0,weatherlink.com 1.10,2013-03-23 23:37:00,
2013-03-23 19:52:00,48.2,33.0,29.95,NNW,335,0.0,0.0,55,0.00,,,0.00,0,weatherlink.com 1.10,2013-03-23 23:52:00,
2013-03-23 20:07:00,46.8,32.0,29.96,NNW,335,0.0,0.0,56,0.00,,,0.00,0,weatherlink.com 1.10,2013-03-24 00:07:00,
2013-03-23 20:22:00,45.5,33.0,29.97,NNW,335,0.0,0.0,61,0.00,,,0.00,0,weatherlink.com 1.10,2013-03-24 00:22:00,
2013-03-23 20:37:00,44.1,32.0,29.97,NNW,335,0.0,0.0,62,0.00,,,0.00,0,weatherlink.com 1.10,2013-03-24 00:37:00,
2013-03-23 20:52:00,43.0,32.0,29.97,NNW,335,0.0,1.0,65,0.00,,,0.00,0,weatherlink.com 1.10,2013-03-24 00:52:00,
2013-03-23 21:07:00,41.8,32.0,29.99,NNW,335,0.0,0.0,67,0.00,,,0.00,0,weatherlink.com 1.10,2013-03-24 01:07:00,
2013-03-23 21:22:00,41.4,32.0,29.99,NNW,335,0.0,0.0,70,0.00,,,0.00,0,weatherlink.com 1.10,2013-03-24 01:22:00,
2013-03-23 21:37:00,41.0,32.0,29.99,NNW,335,0.0,0.0,70,0.00,,,0.00,0,weatherlink.com 1.10,2013-03-24 01:37:00,
2013-03-23 21:52:00,40.1,33.0,30.00,NNW,335,0.0,0.0,75,0.00,,,0.00,0,weatherlink.com 1.10,2013-03-24 01:52:00,
2013-03-23 22:07:00,39.4,32.0,30.00,NNW,335,0.0,0.0,74,0.00,,,0.00,0,weatherlink.com 1.10,2013-03-24 02:07:00,
2013-03-23 22:22:00,38.9,32.0,29.99,NNW,335,0.0,0.0,76,0.00,,,0.00,0,weatherlink.com 1.10,2013-03-24 02:22:00,
2013-03-23 22:37:00,38.5,32.0,29.99,NNW,335,0.0,0.0,78,0.00,,,0.00,0,weatherlink.com 1.10,2013-03-24 02:37:00,
2013-03-23 22:52:00,38.3,32.0,29.99,NNW,335,0.0,0.0,77,0.00,,,0.00,0,weatherlink.com 1.10,2013-03-24 02:52:00,
2013-03-23 23:07:00,37.8,32.0,29.97,NNW,335,0.0,0.0,78,0.00,,,0.00,0,weatherlink.com 1.10,2013-03-24 03:07:00,
2013-03-23 23:22:00,37.2,31.0,29.96,NNW,335,0.0,0.0,79,0.00,,,0.00,0,weatherlink.com 1.10,2013-03-24 03:22:00,
2013-03-23 23:37:00,36.9,31.0,29.96,NNW,335,0.0,0.0,79,0.00,,,0.00,0,weatherlink.com 1.10,2013-03-24 03:37:00,
2013-03-23 23:52:00,36.3,31.0,29.95,NNW,335,0.0,0.0,82,0.00,,,0.00,0,weatherlink.com 1.10,2013-03-24 03:52:00,